Content
SEND FEEDBACK

Daily
Averages
Monthly
Summary
Canada

QUEBEC CITY, QUEBEC


Home > North America > Canada > Quebec
Elevation: 239 feet     Latitude: 46 48N     Longitude: 071 23W

WEATHER
 
SELECT A DAY
Number of Records: 191,996;   Date Range: 6/30/96 - 7/23/14
 
SHARE

PRINT THIS DATA

[ ← Previous Day ]
WEATHER ALMANAC - JULY 5, 2013
[ Next Day → ]
[ °C ]   °F
Weather ElementAverageHighLow
Temperature75.7 °F84.2 °F (2:00 pm)69.8 °F (1:00 am)
Dewpoint64.9 °F70 °F (11:00 am) (7:00 pm)
Humidity79.1 %100 % (1:00 am)52 % (5:00 pm)
Barometer28.18 in30.06 in (8:00 am) (7:00 pm)
Wind Speed11.1 mph21.9 mph (3:00 pm)
Wind Gust23 mph (1:00 pm)
Weather ElementAverage
Visibility10.3 mi
Wind DirectionSW (229.4 °)

Weather ElementTotal
Precipitation---
Cooling Degree Days12 (Base 65)
Growing Degree Days27 (Base 50)
Averaged from 33 records on July 5, 2013
WEATHER CONDITIONS BREAKOUT
WIND DIRECTION BREAKOUT
WEATHER BY HOUR - JULY 5, 2013
[ °C ]   °F
Local TimeTemperatureDewpointHumidityBarometerVisibilityWind DirectionWind SpeedGust SpeedPrecipitationEventsConditions
1:00 AM69.8 °F69.8 °F100 %30.02 in6.0 miWSW (240°)9.2 mphOvercast
2:00 AM70.0 °F69.0 °F96 %30.00 inSW (220°)3.5 mph
2:00 AM69.8 °F69.8 °F100 %30.02 in5.0 miSW (230°)8.1 mphOvercast
3:00 AM69.8 °F69.8 °F100 %30.02 in5.0 miWSW (240°)8.1 mphOvercast
4:00 AM71.6 °F69.8 °F94 %30.03 in5.0 miWSW (240°)12.7 mphMostly Cloudy
5:00 AM70.0 °F68.0 °F93 %30.02 inWSW (240°)5.8 mph
5:00 AM69.8 °F68.0 °F94 %30.04 in6.0 miSW (230°)10.4 mphScattered Clouds
6:00 AM69.8 °F69.8 °F100 %30.04 in4.0 miSW (230°)10.4 mphMostly Cloudy
6:37 AM69.8 °F0.0 °F5.0 miSW (230°)11.5 mphMostly Cloudy
7:00 AM69.8 °F68.0 °F94 %30.05 in6.0 miSW (230°)9.2 mphMostly Cloudy
8:00 AM72.0 °F68.0 °F84 %30.04 inWSW (250°)8.1 mph
8:00 AM71.6 °F68.0 °F88 %30.06 in6.0 miWSW (240°)11.5 mphMostly Cloudy
8:35 AM73.4 °F0.0 °F10.0 miWSW (250°)11.5 mphMostly Cloudy
9:00 AM73.4 °F69.8 °F88 %30.06 in10.0 miWSW (240°)11.5 mphMostly Cloudy
10:00 AM77.0 °F69.8 °F78 %30.05 in15.0 miSW (230°)11.5 mph18.4 mphScattered Clouds
11:00 AM77.0 °F69.8 °F78 %30.04 in15.0 miSW (230°)12.7 mphMostly Cloudy
11:00 AM78.0 °F70.0 °F69 %30.02 inWSW (240°)9.2 mph
12:00 PM80.6 °F69.8 °F70 %30.03 in15.0 miWSW (240°)17.3 mphMostly Cloudy
1:00 PM82.4 °F69.8 °F66 %30.02 in12.0 miSW (230°)16.1 mph23.0 mphMostly Cloudy
2:00 PM82.0 °F70.0 °F59 %29.99 inWSW (250°)11.5 mph
2:00 PM84.2 °F69.8 °F62 %30.00 in12.0 miWSW (240°)16.1 mphScattered Clouds
3:00 PM84.2 °F68.0 °F58 %29.99 in10.0 miSW (230°)21.9 mphMostly Cloudy
4:00 PM82.4 °F69.8 °F66 %29.98 in10.0 miSW (230°)19.6 mphMostly Cloudy
5:00 PM84.2 °F69.8 °F62 %29.97 in10.0 miWSW (240°)17.3 mphMostly Cloudy
5:00 PM83.0 °F68.0 °F52 %29.95 inWSW (240°)10.4 mph
6:00 PM82.4 °F68.0 °F62 %29.96 in15.0 miSW (230°)21.9 mphMostly Cloudy
7:00 PM80.6 °F69.8 °F70 %29.96 in15.0 miWSW (240°)15.0 mphMostly Cloudy
8:00 PM78.0 °F69.0 °F68 %29.94 inWSW (240°)6.9 mph
8:00 PM78.8 °F68.0 °F69 %29.96 in15.0 miWSW (240°)11.5 mphScattered Clouds
9:00 PM75.2 °F68.0 °F78 %29.96 in15.0 miWest (260°)6.9 mphPartly Cloudy
10:00 PM73.4 °F68.0 °F83 %29.96 in15.0 miCalmClear
11:00 PM73.0 °F69.0 °F82 %29.94 inSW (220°)4.6 mph
11:00 PM71.6 °F68.0 °F88 %29.97 in15.0 miSW (230°)4.6 mphClear
Hourly data recorded from CYQB, located miles away from Quebec City, Quebec







STORIES FROM OUR PARTNERS